Location: Red Deer
(52.2681°N, 113.8112°W)
Time: 04:30:37
(UTC-06:00)

JY1SAT - Visible Passes

Search period start: 22 May 2022 00:00
Search period end: 01 June 2022 00:00
Orbit: 566 x 586 km, 97.6° (Epoch: 21 May)

Date Brightness Start Highest point End Pass type
(mag) Time Alt. Az. Time Alt. Az. Time Alt. Az.
22 May ? 00:36:13 10° W 00:36:40 10° W 00:37:06 10° WNW visible
22 May ? 23:00:35 11° S 23:04:29 75° WSW 23:08:35 10° NNW visible
23 May ? 23:04:21 11° S 23:08:16 68° WSW 23:12:22 10° NNW visible
24 May ? 23:08:06 10° S 23:12:03 63° W 23:16:07 10° NNW visible
25 May ? 23:11:51 10° S 23:15:48 57° W 23:19:52 10° NNW visible
26 May ? 23:15:36 10° S 23:19:35 52° W 23:23:36 10° NNW visible
27 May ? 23:19:23 10° S 23:23:19 48° W 23:27:19 10° NNW visible
28 May ? 23:23:10 10° S 23:27:04 44° W 23:31:01 10° NNW visible
29 May ? 23:26:56 10° S 23:30:47 40° W 23:34:42 10° NNW visible
30 May ? 23:30:43 10° SSW 23:34:31 37° W 23:38:22 10° NNW visible
31 May ? 23:34:29 10° SSW 23:38:13 34° W 23:42:01 10° NNW visible
